TimeCDT,TemperatureF,Dew PointF,Humidity,Sea Level PressureIn,VisibilityMPH,Wind Direction,Wind SpeedMPH,Gust SpeedMPH,PrecipitationIn,Events,Conditions,WindDirDegrees,DateUTC
12:53 AM,48.0,35.1,61,30.22,10.0,Calm,Calm,-,N/A,,Partly Cloudy,0,2012-10-08 05:53:00
1:53 AM,46.0,33.1,61,30.23,10.0,NW,6.9,-,N/A,,Clear,320,2012-10-08 06:53:00
2:53 AM,44.1,34.0,68,30.22,10.0,NNW,5.8,-,N/A,,Clear,330,2012-10-08 07:53:00
3:53 AM,44.1,35.1,71,30.21,10.0,NW,5.8,-,N/A,,Clear,310,2012-10-08 08:53:00
4:53 AM,43.0,35.1,74,30.22,10.0,NW,6.9,-,N/A,,Clear,320,2012-10-08 09:53:00
5:53 AM,39.9,35.1,83,30.22,10.0,Calm,Calm,-,N/A,,Clear,0,2012-10-08 10:53:00
6:53 AM,42.1,36.0,79,30.23,10.0,NNW,3.5,-,N/A,,Clear,330,2012-10-08 11:53:00
7:53 AM,42.1,36.0,79,30.24,10.0,NNW,4.6,-,N/A,,Clear,330,2012-10-08 12:53:00
8:53 AM,48.0,39.9,74,30.25,10.0,North,3.5,-,N/A,,Partly Cloudy,350,2012-10-08 13:53:00
9:53 AM,52.0,35.1,53,30.26,10.0,Calm,Calm,-,N/A,,Partly Cloudy,0,2012-10-08 14:53:00
10:53 AM,55.0,35.1,47,30.26,10.0,Calm,Calm,-,N/A,,Partly Cloudy,0,2012-10-08 15:53:00
11:53 AM,59.0,34.0,39,30.23,10.0,Variable,3.5,-,N/A,,Partly Cloudy,0,2012-10-08 16:53:00
12:53 PM,61.0,35.1,38,30.20,10.0,Variable,5.8,-,N/A,,Scattered Clouds,0,2012-10-08 17:53:00
1:53 PM,62.1,35.1,37,30.17,10.0,SSE,4.6,-,N/A,,Mostly Cloudy,160,2012-10-08 18:53:00
2:53 PM,64.0,37.0,37,30.13,10.0,ESE,5.8,-,N/A,,Mostly Cloudy,120,2012-10-08 19:53:00
3:53 PM,64.9,37.9,37,30.11,10.0,SE,3.5,-,N/A,,Mostly Cloudy,130,2012-10-08 20:53:00
4:53 PM,66.0,37.9,36,30.09,10.0,South,9.2,-,N/A,,Partly Cloudy,170,2012-10-08 21:53:00
5:53 PM,64.9,39.0,39,30.08,10.0,SE,6.9,-,N/A,,Partly Cloudy,140,2012-10-08 22:53:00
6:53 PM,62.1,39.9,44,30.05,10.0,SSE,6.9,-,N/A,,Partly Cloudy,150,2012-10-08 23:53:00
7:53 PM,57.9,41.0,53,30.06,10.0,SE,8.1,-,N/A,,Partly Cloudy,130,2012-10-09 00:53:00
8:53 PM,57.9,41.0,53,30.06,10.0,SE,9.2,-,N/A,,Clear,140,2012-10-09 01:53:00
9:53 PM,55.9,41.0,57,30.07,10.0,SE,6.9,-,N/A,,Partly Cloudy,130,2012-10-09 02:53:00
10:53 PM,55.0,43.0,64,30.07,10.0,SSE,9.2,-,N/A,,Partly Cloudy,150,2012-10-09 03:53:00
11:53 PM,55.9,43.0,62,30.06,10.0,SE,10.4,-,N/A,,Partly Cloudy,140,2012-10-09 04:53:00